Regional Weather Roundup
Issued by NWS Columbia, SC

Home | Current Version | Previous Version | Text Only | Print | Product List | Glossary On
Versions: 1 2 3 4 5 6 7 8 9 10 11 12 13 14 15 16 17 18 19 20 21 22 23 24 25 26 27 28 29 30 31 32 33 34 35 36 37 38 39 40 41 42 43 44 45 46 47 48 49 50
000
ASUS42 KCAE 281410
RWRCAE
REGIONAL WEATHER ROUNDUP
NATIONAL WEATHER SERVICE COLUMBIA SC
1000 AM EDT THU MAY 28 2015

NOTE: "FAIR" INDICATES FEW OR NO CLOUDS BELOW 12,000 FEET WITH NO
SIGNIFICANT WEATHER AND/OR OBSTRUCTIONS TO VISIBILITY.

NOT ALL STATIONS ARE QUALITY CONTROLLED BY THE NATIONAL
WEATHER SERVICE. USE DATA WITH CAUTION...ESPECIALLY
DEWPOINT OBSERVATIONS.

SCZ001>056-GAZ040-063>065-077-281500-
...UPSTATE SOUTH CAROLINA...

CITY           SKY/WX    TMP DP  RH WIND       PRES   REMARKS
ANDERSON       MOSUNNY   78  68  71 CALM      30.23S
LIBERTY        MOSUNNY   77  67  70 CALM      30.23S
SPARTANBURG    SUNNY     77  68  73 SW5       30.23S
CLEMSON        MOSUNNY   79  67  66 VRB5      30.24F
GREENVILLE     SUNNY     78  66  66 E3        30.24F
GREENWOOD      MOSUNNY   78  68  71 S5        30.23F
GREER          SUNNY     77  67  71 VRB3      30.22F
ROCK HILL      SUNNY     77  69  76 VRB3      30.24R
CHESTER        MOSUNNY   79  68  69 CALM      30.24S
LAURENS        SUNNY     75  72  88 CALM      30.23S


...CENTRAL SOUTH CAROLINA...

CITY           SKY/WX    TMP DP  RH WIND       PRES   REMARKS
COLUMBIA APT   MOSUNNY   79  66  64 VRB5      30.22S
COLUMBIA OWENS MOSUNNY   77  66  68 VRB3      30.24S
DARLINGTON     MOSUNNY   77  66  69 S7        30.25S
FLORENCE       PTSUNNY   77  69  76 SE9       30.24S
MCENTIRE ANGB  PTSUNNY   77  68  73 VRB3      30.24R
ORANGEBURG     PTSUNNY   78  66  66 VRB3      30.24R
SUMTER SHAW    MOSUNNY   77  68  72 E5        30.22S
AIKEN          FAIR      77  61  57 S5        30.27S
BARNWELL       FAIR      79  68  69 SE3       30.24S
MANNING        PTSUNNY   75  68  78 SE3       30.24S
CAMDEN         FAIR      77  66  69 S5        30.25S
LANCASTER      LGT RAIN  75  73  94 SW5       30.24S
WINNSBORO      SUNNY     79  66  65 CALM      30.23S


...EASTERN AND COASTAL SOUTH CAROLINA...

CITY           SKY/WX    TMP DP  RH WIND       PRES   REMARKS
MYRTLE BEACH   MOSUNNY   79  63  57 SE9       30.26S
N MYRTLE BCH   MOSUNNY   77  62  59 SE7       30.25S
CONWAY         PTSUNNY   77  66  69 CALM      30.25S HAZE
MARION         CLOUDY    73  70  88 SE6       30.26R
HARTSVILLE     PTSUNNY   75  68  78 S6        30.24S
FLORENCE       PTSUNNY   77  69  76 SE9       30.24S
DARLINGTON     MOSUNNY   77  66  69 S7        30.25S
CHARLESTON APT PTSUNNY   79  67  66 SE6       30.23R
MOUNT PLEASANT LGT RAIN  79  70  73 E7        30.24R
WALTERBORO     SUNNY     79  66  65 SE6       30.24S
BEAUFORT       MOSUNNY   82  66  58 VRB5      30.23R


...EASTERN GEORGIA...

CITY           SKY/WX    TMP DP  RH WIND       PRES   REMARKS
AUGUSTA BUSH F PTSUNNY   79  66  64 SW6       30.22S
AUGUSTA DANIEL PTSUNNY   79  66  64 VRB5      30.23S
THOMSON        PTSUNNY   80  71  75 SW5       30.26F
WASHINGTON     FAIR      77  72  83 CALM      30.23S
CLAXTON        FAIR      79  68  69 SE5       30.22S
SYLVANIA       SUNNY     80  70  72 SE6       30.24S
STATESBORO     MOSUNNY   78  70  75 S7        30.22F
SAVANNAH       PTSUNNY   80  64  58 E9        30.22S


...SOUTHERN NORTH CAROLINA...

CITY           SKY/WX    TMP DP  RH WIND       PRES   REMARKS
CHARLOTTE      PTSUNNY   78  66  66 CALM      30.24R
MONROE         MOSUNNY   76  68  76 SW3       30.23R
WADESBORO      MOSUNNY   78  68  72 SE6       30.23S
ROCKINGHAM     MOSUNNY   77  67  71 S6        30.24S
RUTHERFORDTON  SUNNY     76  67  74 CALM      30.25F
ASHEVILLE      MOSUNNY   70  62  76 N6        30.30S

$$


USA.gov is the U.S. government's official web portal to all federal, state and local government web resources and services.